Regional Weather Roundup
Issued by NWS

Home | Current Version | Previous Version | Text Only | Print | Product List | Glossary On
Versions: 1 2 3 4 5 6 7 8 9 10 11 12 13 14 15 16 17 18 19 20 21 22 23 24 25 26 27 28 29 30 31 32 33 34 35 36 37 38 39 40 41 42 43 44 45 46 47 48 49 50
000
ASUS44 KBMX 170310
RWRAL

ALABAMA REGIONAL WEATHER ROUNDUP
NATIONAL WEATHER SERVICE BIRMINGHAM AL
1000 PM CDT MON OCT 16 2017

NOTE: "FAIR" INDICATES FEW OR NO CLOUDS BELOW 12,000 FEET
WITH NO SIGNIFICANT WEATHER AND/OR OBSTRUCTIONS TO VISIBILITY.

THE REMARK "TC" DENOTES TEMPERATURE IN DEGREES CELSIUS.

ALZ001>011-014-016>018-020-170400-
NORTH ALABAMA

CITY           SKY/WX    TMP DP  RH WIND       PRES   REMARKS
MUSCLE SHOALS  CLEAR     56  43  61 N6        30.30R
HUNTSVILLE     CLEAR     53  45  74 N9        30.27R
DECATUR        CLEAR     51  46  83 N6        30.28R
HALEYVILLE     FAIR      52  45  77 N6        30.29R
GADSDEN        CLEAR     54  47  77 N8        30.26R
$$

ALZ012-013-022-023-030>036-040>044-170400-
WEST CENTRAL ALABAMA

CITY           SKY/WX    TMP DP  RH WIND       PRES   REMARKS
TUSCALOOSA     CLOUDY    56  48  74 N7        30.24R
DEMOPOLIS        N/A     56  48  75 N3        30.22R
$$

ALZ015-024>026-033>036-041>044-170400-
CENTRAL ALABAMA

CITY           SKY/WX    TMP DP  RH WIND       PRES   REMARKS
BIRMINGHAM     CLOUDY    56  45  66 N8        30.26R
MONTGOMERY     PTCLDY    60  48  64 N5        30.19R
SHELBY CO ARPT CLOUDY    59  47  64 VRB5      30.22R
MAXWELL AFB    CLOUDY    59  49  71 N7        30.18R
GREENVILLE     FAIR      58  49  72 N7        30.16S
SELMA          FAIR      57  48  72 N5        30.20R
PRATTVILLE     FAIR      55  50  84 CALM      30.19R
BESSEMER       FAIR      57  45  64 N12       30.23R
TALLADEGA      FAIR      56  47  71 N3        30.23S
PELL CITY      CLEAR     55  46  71 N8        30.23S
MARION         NOT AVBL
SYLACAUGA      FAIR      56  49  76 E3        30.22R
$$

ALZ019-021-028-029-037-038-045>048-170400-
EAST CENTRAL ALABAMA

CITY           SKY/WX    TMP DP  RH WIND       PRES   REMARKS
ANNISTON       CLEAR     59  44  57 NE9       30.23R
ALEXANDER CITY CLOUDY    56  47  73 NE5       30.19R
AUBURN         CLOUDY    56  46  69 N12       30.19R
$$

ALZ051>064-170400-
SOUTHWEST ALABAMA

CITY           SKY/WX    TMP DP  RH WIND       PRES   REMARKS
MOBILE         MOCLDY    62  51  67 N12       30.17R
BROOKLEY FIELD MOCLDY    64  53  67 N12       30.17R
EVERGREEN      PTCLDY    57  51  80 N7        30.17R
$$

ALZ049-050-065>069-170400-
SOUTHEAST ALABAMA

CITY           SKY/WX    TMP DP  RH WIND       PRES   REMARKS
DOTHAN         PTCLDY    60  52  74 N8        30.16R
OZARK          MOCLDY    62  49  62 N13       30.12R
TROY           CLOUDY    58  51  78 NE7       30.17R
EUFAULA        FAIR      59  51  75 VRB3      30.14R
$$



USA.gov is the U.S. government's official web portal to all federal, state and local government web resources and services.